Hourly Weather Lewis

Today, 29 September, Tuesday

Time Temperature Precipitation Wind Pressure Humidity
00:00 +8°C° 0 mm 6 mps 749 mmHg 85%
01:00 +7°C° 0 mm 5 mps 749 mmHg 86%
02:00 +7°C° 0 mm 5 mps 749 mmHg 87%
03:00 +7°C° 0 mm 4 mps 749 mmHg 87%
04:00 +7°C° 0 mm 4 mps 749 mmHg 87%
05:00 +7°C° 0 mm 4 mps 750 mmHg 86%
06:00 +7°C° 0 mm 4 mps 750 mmHg 86%
07:00 +8°C° 0 mm 5 mps 750 mmHg 84%
08:00 +9°C° 0 mm 5 mps 749 mmHg 81%
09:00 +10°C° 0 mm 5 mps 749 mmHg 78%
10:00 +10°C° 0.1 mm 6 mps 749 mmHg 75%
11:00 +11°C° 0.1 mm 7 mps 749 mmHg 73%
12:00 +11°C° 0.1 mm 7 mps 749 mmHg 70%
13:00 +11°C° 0.1 mm 8 mps 748 mmHg 72%
14:00 +11°C° 0.1 mm 8 mps 747 mmHg 73%
15:00 +11°C° 0.1 mm 8 mps 747 mmHg 74%
16:00 +10°C° 0 mm 8 mps 746 mmHg 76%
17:00 +10°C° 0 mm 8 mps 746 mmHg 78%
18:00 +9°C° 0 mm 7 mps 745 mmHg 80%
19:00 +9°C° 0 mm 8 mps 745 mmHg 80%
20:00 +9°C° 0 mm 8 mps 744 mmHg 80%
21:00 +9°C° 0 mm 8 mps 744 mmHg 80%
22:00 +8°C° 0 mm 9 mps 743 mmHg 80%
23:00 +8°C° 0 mm 9 mps 741 mmHg 80%

Tomorrow, 30 September, Wednesday

Time Temperature Precipitation Wind Pressure Humidity
00:00 +8°C° 0 mm 9 mps 740 mmHg 80%
01:00 +8°C° 0.3 mm 10 mps 739 mmHg 82%
02:00 +8°C° 0.3 mm 10 mps 738 mmHg 84%
03:00 +8°C° 0.3 mm 11 mps 736 mmHg 86%
04:00 +9°C° 0.4 mm 11 mps 736 mmHg 85%
05:00 +9°C° 0.4 mm 12 mps 735 mmHg 84%
06:00 +10°C° 0.4 mm 13 mps 735 mmHg 84%
07:00 +9°C° 0.1 mm 11 mps 735 mmHg 83%
08:00 +10°C° 0.1 mm 9 mps 736 mmHg 83%
09:00 +10°C° 0.1 mm 8 mps 737 mmHg 82%
10:00 +10°C° 0 mm 7 mps 737 mmHg 79%
11:00 +10°C° 0 mm 6 mps 738 mmHg 76%
12:00 +10°C° 0 mm 5 mps 738 mmHg 74%
13:00 +9°C° 0 mm 5 mps 738 mmHg 72%
14:00 +9°C° 0 mm 5 mps 738 mmHg 71%
15:00 +9°C° 0 mm 5 mps 738 mmHg 70%
16:00 +8°C° 0.1 mm 5 mps 738 mmHg 72%
17:00 +8°C° 0.1 mm 5 mps 738 mmHg 74%
18:00 +7°C° 0.1 mm 5 mps 738 mmHg 76%
19:00 +7°C° 0.1 mm 5 mps 738 mmHg 77%
20:00 +7°C° 0.1 mm 5 mps 738 mmHg 78%
21:00 +7°C° 0.1 mm 5 mps 738 mmHg 79%
22:00 +7°C° 0.1 mm 5 mps 738 mmHg 79%
23:00 +7°C° 0.1 mm 4 mps 737 mmHg 78%

Day after tomorrow, 1 October, Thursday

Time Temperature Precipitation Wind Pressure Humidity
00:00 +7°C° 0.1 mm 4 mps 737 mmHg 78%
01:00 +7°C° 0.1 mm 4 mps 737 mmHg 78%
02:00 +7°C° 0.1 mm 4 mps 737 mmHg 79%
03:00 +7°C° 0.1 mm 4 mps 736 mmHg 79%
04:00 +6°C° 0 mm 4 mps 736 mmHg 80%
05:00 +6°C° 0 mm 4 mps 736 mmHg 81%
06:00 +6°C° 0 mm 4 mps 736 mmHg 82%
07:00 +6°C° 0 mm 4 mps 736 mmHg 78%
08:00 +7°C° 0 mm 4 mps 736 mmHg 75%
09:00 +9°C° 0 mm 3 mps 736 mmHg 71%
10:00 +9°C° 0 mm 3 mps 737 mmHg 68%
11:00 +10°C° 0 mm 3 mps 737 mmHg 65%
12:00 +10°C° 0 mm 3 mps 737 mmHg 62%
13:00 +10°C° 0.1 mm 3 mps 737 mmHg 63%
14:00 +10°C° 0.1 mm 3 mps 738 mmHg 64%
15:00 +10°C° 0.1 mm 4 mps 738 mmHg 65%
16:00 +8°C° 0 mm 4 mps 738 mmHg 68%
17:00 +7°C° 0 mm 4 mps 738 mmHg 72%
18:00 +7°C° 0 mm 5 mps 739 mmHg 76%
19:00 +6°C° 0 mm 5 mps 739 mmHg 77%
20:00 +6°C° 0 mm 5 mps 740 mmHg 78%
21:00 +6°C° 0 mm 5 mps 740 mmHg 79%
22:00 +6°C° 0.1 mm 5 mps 740 mmHg 82%
23:00 +6°C° 0.1 mm 5 mps 740 mmHg 84%

2 October, Friday

Time Temperature Precipitation Wind Pressure Humidity
00:00 +7°C° 0.1 mm 5 mps 740 mmHg 86%
01:00 +7°C° 0.3 mm 6 mps 740 mmHg 86%
02:00 +7°C° 0.3 mm 6 mps 740 mmHg 86%
03:00 +6°C° 0.3 mm 7 mps 740 mmHg 87%
04:00 +7°C° 0.5 mm 6 mps 740 mmHg 87%
05:00 +7°C° 0.5 mm 6 mps 740 mmHg 87%
06:00 +7°C° 0.5 mm 5 mps 740 mmHg 87%
07:00 +7°C° 0.4 mm 4 mps 740 mmHg 88%
08:00 +9°C° 0.4 mm 3 mps 741 mmHg 89%
09:00 +9°C° 0.4 mm 2 mps 742 mmHg 89%
10:00 +10°C° 0.1 mm 2 mps 742 mmHg 85%
11:00 +11°C° 0.1 mm 1 mps 743 mmHg 81%
12:00 +12°C° 0.1 mm 1 mps 743 mmHg 77%
13:00 +12°C° 0.1 mm 1 mps 744 mmHg 78%
14:00 +12°C° 0.1 mm 1 mps 744 mmHg 78%
15:00 +12°C° 0.1 mm 2 mps 745 mmHg 79%
16:00 +10°C° 0 mm 2 mps 745 mmHg 82%
17:00 +9°C° 0 mm 2 mps 746 mmHg 85%
18:00 +9°C° 0 mm 2 mps 746 mmHg 88%
19:00 +8°C° 0 mm 2 mps 747 mmHg 89%
20:00 +8°C° 0 mm 2 mps 747 mmHg 90%
21:00 +7°C° 0 mm 2 mps 747 mmHg 91%
22:00 +7°C° 0 mm 2 mps 747 mmHg 91%
23:00 +7°C° 0 mm 2 mps 747 mmHg 91%

3 October, Saturday

Time Temperature Precipitation Wind Pressure Humidity
00:00 +7°C° 0 mm 2 mps 747 mmHg 90%
01:00 +7°C° 0 mm 2 mps 747 mmHg 90%
02:00 +7°C° 0 mm 2 mps 747 mmHg 90%
03:00 +7°C° 0 mm 2 mps 746 mmHg 89%
04:00 +7°C° 0 mm 2 mps 746 mmHg 89%
05:00 +7°C° 0 mm 2 mps 746 mmHg 89%
06:00 +7°C° 0 mm 3 mps 745 mmHg 89%
07:00 +7°C° 0 mm 3 mps 745 mmHg 89%
08:00 +8°C° 0 mm 3 mps 744 mmHg 88%
09:00 +9°C° 0 mm 3 mps 744 mmHg 88%
10:00 +10°C° 0.1 mm 4 mps 743 mmHg 86%
11:00 +9°C° 0.1 mm 5 mps 743 mmHg 85%
12:00 +10°C° 0.1 mm 5 mps 742 mmHg 84%
13:00 +10°C° 0.4 mm 5 mps 742 mmHg 85%
14:00 +10°C° 0.4 mm 5 mps 741 mmHg 87%
15:00 +9°C° 0.4 mm 5 mps 740 mmHg 89%
16:00 +9°C° 1.5 mm 5 mps 740 mmHg 91%
17:00 +9°C° 1.5 mm 6 mps 740 mmHg 93%
18:00 +8°C° 1.5 mm 6 mps 739 mmHg 95%
19:00 +9°C° 1.2 mm 6 mps 739 mmHg 95%
20:00 +9°C° 1.2 mm 6 mps 739 mmHg 96%
21:00 +9°C° 1.2 mm 7 mps 738 mmHg 96%
22:00 +9°C° 0.6 mm 6 mps 738 mmHg 95%
23:00 +10°C° 0.6 mm 6 mps 738 mmHg 95%

4 October, Sunday

Time Temperature Precipitation Wind Pressure Humidity
00:00 +10°C° 0.6 mm 6 mps 737 mmHg 95%
01:00 +10°C° 0.3 mm 6 mps 737 mmHg 94%
02:00 +10°C° 0.3 mm 7 mps 736 mmHg 94%
03:00 +10°C° 0.3 mm 7 mps 736 mmHg 94%
04:00 +10°C° 0.7 mm 8 mps 736 mmHg 94%
05:00 +10°C° 0.7 mm 9 mps 736 mmHg 94%
06:00 +11°C° 0.7 mm 9 mps 735 mmHg 95%
07:00 +11°C° 1.2 mm 10 mps 735 mmHg 94%
08:00 +11°C° 1.2 mm 10 mps 735 mmHg 93%
09:00 +11°C° 1.2 mm 10 mps 735 mmHg 93%
10:00 +11°C° 0.7 mm 10 mps 734 mmHg 92%
11:00 +11°C° 0.7 mm 10 mps 734 mmHg 92%
12:00 +11°C° 0.7 mm 10 mps 734 mmHg 92%
13:00 +11°C° 0.2 mm 11 mps 733 mmHg 91%
14:00 +11°C° 0.2 mm 11 mps 732 mmHg 91%
15:00 +11°C° 0.2 mm 11 mps 732 mmHg 90%
16:00 +11°C° 0.2 mm 11 mps 732 mmHg 90%
17:00 +10°C° 0.2 mm 12 mps 731 mmHg 90%
18:00 +10°C° 0.2 mm 12 mps 731 mmHg 90%
19:00 +9°C° 0 mm 11 mps 732 mmHg 87%
20:00 +9°C° 0 mm 10 mps 732 mmHg 84%
21:00 +8°C° 0 mm 9 mps 733 mmHg 81%
22:00 +9°C° 0 mm 8 mps 733 mmHg 81%
23:00 +9°C° 0 mm 8 mps 734 mmHg 81%
Show more